Boothville, LA

3:46 PM CDT on September 28, 2016 (GMT -0500)
Venice

Weather History for K1B7 - November, 2013

Change the Weather History Date:

Saturday, November 9, 2013

  Actual Average (KAXO) Record (KAXO)
Temperature  
Mean Temperature 66 °F -  
Max Temperature 69 °F 67 °F 77 °F (1998)
Min Temperature 62 °F 63 °F 51 °F (1997)
Growing Degree Days 16 (Base 50)    
Moisture  
Dew Point 63 °F    
Average Humidity 86    
Maximum Humidity 94    
Minimum Humidity 73    
Precipitation  
Precipitation 0.00 in - - ()
Sea Level Pressure  
Sea Level Pressure 30.17 in    
Wind  
Wind Speed 11 mph (NNE)    
Max Wind Speed 23 mph    
Max Gust Speed 24 mph    
Visibility 10 miles    
Events      
Averages and records for this station are not official NWS values.
T = Trace of Precipitation, MM = Missing Value Source: NWS Daily Summary

Daily Weather History Graph

Daily Weather History Graph

Search for Another Location

Airport or City:

Trip Planner

Search our weather history database for the weather conditions in past years. The results will help you decide how hot, cold, wet, or windy it might be!

Date:

Astronomy

Nov. 09, 2013 Rise Set
Actual Time 6:17 AM CST 5:05 PM CST
Civil Twilight 5:52 AM CST 5:30 PM CST
Nautical Twilight 5:23 AM CST 5:59 PM CST
Astronomical Twilight 4:55 AM CST 6:27 PM CST
Moon 11:58 AM CST (11/9) 11:29 PM CST (11/9)
Length of Visible Light 11h 38m
Length of Day
10h 48m
Waxing Crescent, 44% of the Moon is Illuminated
Nov 9
Waxing Crescent
Nov 9
First Quarter
Nov 17
Full
Nov 25
Last Quarter
Dec 2
New

Hourly Weather History & Observations

Time (CST) Temp. Dew Point Humidity Pressure Visibility Wind Dir Wind Speed Gust Speed Precip Events Conditions
5:12 AM 62.6 °F 60.8 °F 94% 30.13 in 10.0 mi NNE 5.8 mph - N/A   Mostly Cloudy
5:45 AM 64.4 °F 60.8 °F 88% 30.14 in 10.0 mi NE 9.2 mph - N/A   Partly Cloudy
5:46 AM 64.4 °F 60.8 °F 88% 30.14 in 10.0 mi NE 9.2 mph - N/A   Partly Cloudy
6:17 AM 62.6 °F 60.8 °F 94% 30.15 in 10.0 mi NNE 6.9 mph - N/A   Clear
6:45 AM 64.4 °F 60.8 °F 88% 30.16 in 10.0 mi North 6.9 mph - N/A   Partly Cloudy
7:12 AM 64.4 °F 62.6 °F 94% 30.18 in 10.0 mi NNW 6.9 mph - N/A   Mostly Cloudy
7:45 AM 66.2 °F 62.6 °F 88% 30.18 in 10.0 mi North 8.1 mph - N/A   Scattered Clouds
8:09 AM 68.0 °F 62.6 °F 83% 30.19 in 10.0 mi NNE 5.8 mph - N/A   Clear
8:45 AM 68.0 °F 62.6 °F 83% 30.19 in 10.0 mi NNE 5.8 mph - N/A   Partly Cloudy
9:14 AM 69.8 °F 62.6 °F 78% 30.20 in 10.0 mi North 9.2 mph - N/A   Partly Cloudy
9:45 AM 69.8 °F 60.8 °F 73% 30.20 in 10.0 mi NNE 9.2 mph - N/A   Clear
10:26 AM 69.8 °F 62.6 °F 78% 30.20 in 10.0 mi North 17.3 mph - N/A   Clear
10:53 AM 68.0 °F 62.6 °F 83% 30.19 in 10.0 mi North 17.3 mph - N/A   Clear
11:39 AM 68.0 °F 64.4 °F 88% 30.17 in 10.0 mi NNE 20.7 mph - N/A   Partly Cloudy
11:51 AM 69.8 °F 64.4 °F 83% 30.18 in 10.0 mi NNE 23.0 mph - N/A   Clear
12:25 PM 68.0 °F 62.6 °F 83% 30.17 in 10.0 mi NNE 13.8 mph 24.2 mph N/A   Scattered Clouds
12:45 PM 68.0 °F 62.6 °F 83% 30.16 in 10.0 mi NNE 15.0 mph 24.2 mph N/A   Clear
1:14 PM 68.0 °F 64.4 °F 88% 30.15 in 10.0 mi NNE 20.7 mph - N/A   Clear
1:45 PM 68.0 °F 64.4 °F 88% 30.15 in 10.0 mi NNE 19.6 mph - N/A   Clear
2:15 PM 68.0 °F 64.4 °F 88% 30.15 in 10.0 mi NE 19.6 mph - N/A   Clear
2:45 PM 68.0 °F 64.4 °F 88% 30.15 in 10.0 mi NNE 13.8 mph - N/A   Partly Cloudy
3:17 PM 68.0 °F 64.4 °F 88% 30.15 in 10.0 mi NNE 15.0 mph - N/A   Clear
4:00 PM 68.0 °F 64.4 °F 88% 30.15 in 10.0 mi NE 13.8 mph - N/A   Clear
4:30 PM 68.0 °F 64.4 °F 88% 30.14 in 10.0 mi NNE 12.7 mph - N/A   Clear